FDX1434 KMEM-KIAD

Flight info

Callsign FDX1434
Flight time 1h 29m
Altitude 37000
Route GOETZ7 DIYAB HITMN Q34 SITTR GIBBZ5
Aircraft MD11/H-SDE1E2E3FGHIJ2J3J4J5M1RWXY/LB1D1

Departure

Time 2026-05-04 16:04
Airport Memphis International Airport (KMEM)

Arrival

Time 2026-05-04 17:33
Airport Washington Dulles International Airport (KIAD)
Time Latitude Longitude Altitude Speed Heading
2026-05-04 15:32 35.06161 -89.98173 257 ft 0 kts 92°
2026-05-04 15:50 35.06162 -89.98186 257 ft 2 kts 101°
2026-05-04 15:50 35.06166 -89.98204 257 ft 2 kts 115°
2026-05-04 15:50 35.06174 -89.98219 257 ft 2 kts 127°
2026-05-04 15:50 35.06184 -89.98233 257 ft 2 kts 140°
2026-05-04 15:51 35.06197 -89.98244 257 ft 2 kts 152°
2026-05-04 15:51 35.06211 -89.98251 257 ft 2 kts 165°
2026-05-04 15:51 35.06226 -89.98254 256 ft 2 kts 178°
2026-05-04 15:51 35.06242 -89.98253 256 ft 2 kts 183°
2026-05-04 15:52 35.06251 -89.98252 256 ft 0 kts 182°
2026-05-04 15:54 35.06233 -89.98253 256 ft 6 kts 182°
2026-05-04 15:54 35.06164 -89.98256 257 ft 11 kts 181°
2026-05-04 15:54 35.06085 -89.98259 259 ft 11 kts 181°
2026-05-04 15:54 35.06024 -89.98205 260 ft 12 kts 111°
2026-05-04 15:55 35.06014 -89.98082 260 ft 15 kts 92°
2026-05-04 15:55 35.06010 -89.97944 262 ft 13 kts 92°
2026-05-04 15:55 35.06009 -89.97907 262 ft 0 kts 92°
2026-05-04 15:56 35.06009 -89.97890 263 ft 4 kts 92°
2026-05-04 15:56 35.06005 -89.97813 264 ft 13 kts 95°
2026-05-04 15:57 35.05984 -89.97681 264 ft 16 kts 104°
2026-05-04 15:57 35.05950 -89.97551 266 ft 14 kts 126°
2026-05-04 15:57 35.05854 -89.97491 267 ft 16 kts 167°
2026-05-04 15:57 35.05741 -89.97483 269 ft 14 kts 180°
2026-05-04 15:58 35.05669 -89.97485 270 ft 0 kts 181°
2026-05-04 15:58 35.05668 -89.97485 270 ft 0 kts 181°
2026-05-04 15:58 35.05651 -89.97485 271 ft 4 kts 180°
2026-05-04 15:59 35.05615 -89.97485 272 ft 6 kts 180°
2026-05-04 15:59 35.05585 -89.97485 273 ft 0 kts 179°
2026-05-04 16:00 35.05580 -89.97485 273 ft 3 kts 179°
2026-05-04 16:00 35.05534 -89.97484 275 ft 9 kts 184°
2026-05-04 16:00 35.05500 -89.97499 277 ft 0 kts 219°
2026-05-04 16:01 35.05499 -89.97499 277 ft 0 kts 219°
2026-05-04 16:01 35.05478 -89.97523 277 ft 9 kts 228°
2026-05-04 16:01 35.05423 -89.97604 276 ft 12 kts 208°
2026-05-04 16:01 35.05378 -89.97613 278 ft 0 kts 178°
2026-05-04 16:03 35.05316 -89.97612 280 ft 37 kts 179°
2026-05-04 16:03 35.04750 -89.97602 293 ft 121 kts 179°
2026-05-04 16:03 35.03630 -89.97577 447 ft 174 kts 182°
2026-05-04 16:04 35.02312 -89.97543 1290 ft 176 kts 181°
2026-05-04 16:04 34.99657 -89.97388 3010 ft 191 kts 183°
2026-05-04 16:04 34.98228 -89.97295 3863 ft 203 kts 173°
2026-05-04 16:05 34.96766 -89.96790 4676 ft 215 kts 163°
2026-05-04 16:05 34.95243 -89.95972 4835 ft 241 kts 154°
2026-05-04 16:05 34.92825 -89.92410 4850 ft 268 kts 107°
2026-05-04 16:06 34.92558 -89.90009 5042 ft 282 kts 95°
2026-05-04 16:06 34.92874 -89.83646 8510 ft 290 kts 76°
2026-05-04 16:07 34.93978 -89.80547 10041 ft 300 kts 60°
2026-05-04 16:07 34.97824 -89.73098 12051 ft 378 kts 59°
2026-05-04 16:08 34.99250 -89.70074 12667 ft 404 kts 60°
2026-05-04 16:08 35.03694 -89.60384 16098 ft 432 kts 59°
2026-05-04 16:09 35.06763 -89.53794 18302 ft 447 kts 59°
2026-05-04 16:09 35.09933 -89.47033 20361 ft 461 kts 58°
2026-05-04 16:10 35.13267 -89.39912 22342 ft 476 kts 57°
2026-05-04 16:11 35.18461 -89.28867 25145 ft 498 kts 57°
2026-05-04 16:11 35.20241 -89.25073 26028 ft 504 kts 57°
2026-05-04 16:12 35.24256 -89.12191 28501 ft 528 kts 72°
2026-05-04 16:12 35.28794 -88.99367 31521 ft 524 kts 60°
2026-05-04 16:13 35.31936 -88.91258 33668 ft 517 kts 62°
2026-05-04 16:13 35.34904 -88.83257 35296 ft 511 kts 62°
2026-05-04 16:14 35.37871 -88.75248 36431 ft 510 kts 61°
2026-05-04 16:14 35.40894 -88.67178 36919 ft 508 kts 60°
2026-05-04 16:16 35.48593 -88.46706 37022 ft 507 kts 60°
2026-05-04 16:17 35.56413 -88.26010 37006 ft 507 kts 61°
2026-05-04 16:18 35.62690 -88.09274 37018 ft 508 kts 62°
2026-05-04 16:19 35.70265 -87.88251 37011 ft 509 kts 62°
2026-05-04 16:20 35.78088 -87.66773 37008 ft 508 kts 62°
2026-05-04 16:22 35.85968 -87.45234 37001 ft 509 kts 61°
2026-05-04 16:23 35.95159 -87.20232 36998 ft 509 kts 62°
2026-05-04 16:25 36.03744 -86.96037 37015 ft 511 kts 62°
2026-05-04 16:26 36.13888 -86.67650 37025 ft 511 kts 62°
2026-05-04 16:28 36.20602 -86.46789 37020 ft 511 kts 64°
2026-05-04 16:29 36.29866 -86.17680 37014 ft 513 kts 64°
2026-05-04 16:31 36.36463 -85.97102 37016 ft 512 kts 64°
2026-05-04 16:32 36.44503 -85.72186 37014 ft 513 kts 64°
2026-05-04 16:33 36.49725 -85.55555 37015 ft 513 kts 65°
2026-05-04 16:34 36.53793 -85.42490 37009 ft 513 kts 64°
2026-05-04 16:35 36.61829 -85.16796 36990 ft 513 kts 65°
2026-05-04 16:36 36.65876 -85.03638 36990 ft 514 kts 65°
2026-05-04 16:37 36.69859 -84.90479 36995 ft 514 kts 65°
2026-05-04 16:38 36.75075 -84.73395 36997 ft 515 kts 65°
2026-05-04 16:39 36.81573 -84.52240 37010 ft 515 kts 64°
2026-05-04 16:40 36.86618 -84.35296 37014 ft 516 kts 65°
2026-05-04 16:41 36.93343 -84.12807 37007 ft 518 kts 65°
2026-05-04 16:42 36.97274 -83.99751 38547 ft 518 kts 65°
2026-05-04 16:43 36.99945 -83.90552 38978 ft 519 kts 66°
2026-05-04 16:43 37.03887 -83.76805 38985 ft 514 kts 66°
2026-05-04 16:45 37.11544 -83.50396 38993 ft 513 kts 66°
2026-05-04 16:46 37.17723 -83.29247 39000 ft 514 kts 66°
2026-05-04 16:47 37.22836 -83.11853 38997 ft 514 kts 66°
2026-05-04 16:48 37.27830 -82.94667 38982 ft 514 kts 67°
2026-05-04 16:49 37.32548 -82.77634 38985 ft 514 kts 67°
2026-05-04 16:50 37.37295 -82.60626 38985 ft 514 kts 66°
2026-05-04 16:51 37.40898 -82.47781 38981 ft 513 kts 66°
2026-05-04 16:52 37.45697 -82.30771 38977 ft 512 kts 66°
2026-05-04 16:53 37.49303 -82.18035 38979 ft 512 kts 66°
2026-05-04 16:54 37.54159 -82.00613 38981 ft 512 kts 67°
2026-05-04 16:55 37.61774 -81.72834 38999 ft 511 kts 67°
2026-05-04 16:56 37.68106 -81.49674 39005 ft 512 kts 67°
2026-05-04 16:57 37.71865 -81.35821 39010 ft 511 kts 67°
2026-05-04 16:58 37.76729 -81.17293 39011 ft 510 kts 68°
2026-05-04 17:00 37.85613 -80.91118 39008 ft 508 kts 63°
2026-05-04 17:01 37.93237 -80.70029 39003 ft 505 kts 56°
2026-05-04 17:02 38.01434 -80.55620 38993 ft 497 kts 47°
2026-05-04 17:03 38.07817 -80.45060 38940 ft 497 kts 48°
2026-05-04 17:03 38.10004 -80.41413 38276 ft 502 kts 47°
2026-05-04 17:03 38.14552 -80.33839 36748 ft 504 kts 48°
2026-05-04 17:04 38.19155 -80.26199 35330 ft 497 kts 47°
2026-05-04 17:04 38.23362 -80.19216 34026 ft 486 kts 47°
2026-05-04 17:05 38.27467 -80.11869 32837 ft 497 kts 50°
2026-05-04 17:05 38.31621 -80.03946 31037 ft 505 kts 51°
2026-05-04 17:06 38.35831 -79.95924 28988 ft 508 kts 51°
2026-05-04 17:06 38.37940 -79.91965 27978 ft 508 kts 51°
2026-05-04 17:07 38.41837 -79.84289 26117 ft 508 kts 57°
2026-05-04 17:07 38.42900 -79.81647 25543 ft 509 kts 62°
2026-05-04 17:07 38.44566 -79.75997 25102 ft 518 kts 71°
2026-05-04 17:07 38.45523 -79.71541 24936 ft 519 kts 73°
2026-05-04 17:08 38.46394 -79.67011 24731 ft 516 kts 74°
2026-05-04 17:08 38.48114 -79.58103 24323 ft 509 kts 73°
2026-05-04 17:08 38.49014 -79.53702 24040 ft 493 kts 72°
2026-05-04 17:09 38.49876 -79.49538 23943 ft 463 kts 72°
2026-05-04 17:09 38.50684 -79.45533 23402 ft 448 kts 73°
2026-05-04 17:09 38.51443 -79.41617 22978 ft 434 kts 73°
2026-05-04 17:10 38.53021 -79.33634 21975 ft 425 kts 73°
2026-05-04 17:10 38.55328 -79.21917 19931 ft 407 kts 73°
2026-05-04 17:11 38.56092 -79.18105 19399 ft 392 kts 73°
2026-05-04 17:11 38.56827 -79.14445 18904 ft 386 kts 73°
2026-05-04 17:11 38.58203 -79.07492 18098 ft 391 kts 73°
2026-05-04 17:12 38.58886 -79.04033 17612 ft 391 kts 74°
2026-05-04 17:12 38.60052 -78.97097 16872 ft 379 kts 76°
2026-05-04 17:13 38.61745 -78.86850 15818 ft 377 kts 75°
2026-05-04 17:14 38.63768 -78.76971 14801 ft 371 kts 70°
2026-05-04 17:14 38.64546 -78.73763 14490 ft 368 kts 70°
2026-05-04 17:14 38.66074 -78.67361 13865 ft 361 kts 70°
2026-05-04 17:15 38.66808 -78.64225 13547 ft 354 kts 70°
2026-05-04 17:15 38.68232 -78.58140 12965 ft 335 kts 70°
2026-05-04 17:16 38.69603 -78.52341 12400 ft 321 kts 70°
2026-05-04 17:16 38.71595 -78.43952 11588 ft 317 kts 70°
2026-05-04 17:17 38.72286 -78.41030 11298 ft 316 kts 70°
2026-05-04 17:17 38.75604 -78.33764 10547 ft 302 kts 41°
2026-05-04 17:18 38.77079 -78.31878 10300 ft 300 kts 39°
2026-05-04 17:18 38.80102 -78.27992 9843 ft 299 kts 41°
2026-05-04 17:19 38.82996 -78.24005 9369 ft 297 kts 43°
2026-05-04 17:19 38.85670 -78.19637 8885 ft 301 kts 60°
2026-05-04 17:20 38.87161 -78.14398 8053 ft 300 kts 73°
2026-05-04 17:20 38.88300 -78.09171 7408 ft 279 kts 72°
2026-05-04 17:20 38.88889 -78.06713 7030 ft 269 kts 71°
2026-05-04 17:21 38.90085 -78.01937 6347 ft 251 kts 71°
2026-05-04 17:21 38.91229 -77.97449 6054 ft 241 kts 71°
2026-05-04 17:22 38.91814 -77.95129 5999 ft 249 kts 71°
2026-05-04 17:22 38.92393 -77.92817 5969 ft 248 kts 71°
2026-05-04 17:23 38.94168 -77.85642 5962 ft 259 kts 71°
2026-05-04 17:23 38.94775 -77.83208 5964 ft 259 kts 71°
2026-05-04 17:23 38.95966 -77.78432 5169 ft 250 kts 72°
2026-05-04 17:24 38.96503 -77.76124 4640 ft 246 kts 66°
2026-05-04 17:24 38.99762 -77.71115 3909 ft 229 kts 40°
2026-05-04 17:25 39.01100 -77.69606 3919 ft 239 kts 39°
2026-05-04 17:25 39.03846 -77.66623 3918 ft 238 kts 38°
2026-05-04 17:26 39.06582 -77.63649 3937 ft 238 kts 39°
2026-05-04 17:26 39.10659 -77.59179 2946 ft 236 kts 39°
2026-05-04 17:27 39.13328 -77.56245 2954 ft 236 kts 39°
2026-05-04 17:27 39.15714 -77.53338 2930 ft 217 kts 58°
2026-05-04 17:28 39.15680 -77.49738 3042 ft 192 kts 133°
2026-05-04 17:29 39.11987 -77.47070 2960 ft 179 kts 159°
2026-05-04 17:29 39.08361 -77.45924 2426 ft 151 kts 179°
2026-05-04 17:30 39.05033 -77.45712 1842 ft 152 kts 185°
2026-05-04 17:31 39.02862 -77.45853 1369 ft 151 kts 183°
2026-05-04 17:31 38.99490 -77.45888 744 ft 146 kts 182°
2026-05-04 17:32 38.97327 -77.45927 355 ft 146 kts 183°
2026-05-04 17:33 38.95502 -77.45915 284 ft 13 kts 154°
2026-05-04 17:33 38.95410 -77.45854 285 ft 11 kts 150°
2026-05-04 17:34 38.95374 -77.45828 285 ft 0 kts 149°
2026-05-04 17:34 38.95339 -77.45802 286 ft 10 kts 150°
2026-05-04 17:35 38.95442 -77.45712 288 ft 14 kts 359°
2026-05-04 17:35 38.95657 -77.45710 285 ft 11 kts
2026-05-04 17:35 38.95714 -77.45674 285 ft 5 kts 76°
2026-05-04 17:36 38.95721 -77.45622 286 ft 6 kts 84°
2026-05-04 17:36 38.95723 -77.45560 287 ft 7 kts 94°
2026-05-04 17:36 38.95718 -77.45503 288 ft 6 kts 93°
2026-05-04 17:36 38.95718 -77.45460 289 ft 2 kts 90°
2026-05-04 17:37 38.95718 -77.45448 289 ft 0 kts 90°
2026-05-04 17:37 38.95718 -77.45447 289 ft 0 kts 90°